Weather History for KFOK - August, 2013

Change the Weather History Date:

Monday, August 19, 2013

  Actual Average Record
Temperature  
Mean Temperature 68 °F -  
Max Temperature 81 °F 77 °F 91 °F (2002)
Min Temperature 54 °F 60 °F 51 °F (1998)
Cooling Degree Days 2    
Growing Degree Days 18 (Base 50)    
Moisture  
Dew Point 59 °F    
Average Humidity 77    
Maximum Humidity 97    
Minimum Humidity 45    
Precipitation  
Precipitation 0.00 in - - ()
Sea Level Pressure  
Sea Level Pressure 30.08 in    
Wind  
Wind Speed 3 mph (WSW)    
Max Wind Speed 13 mph    
Max Gust Speed -    
Visibility 10 miles    
Events      
Averages and records for this station are not official NWS values.
T = Trace of Precipitation, MM = Missing Value Source: NWS Daily Summary

Daily Weather History Graph

Daily Weather History Graph

Search for Another Location

Airport or City:

Trip Planner

Search our weather history database for the weather conditions in past years. The results will help you decide how hot, cold, wet, or windy it might be!

Date:

Astronomy

Aug. 19, 2013 Rise Set
Actual Time 6:04 AM EDT 7:42 PM EDT
Civil Twilight 5:35 AM EDT 8:11 PM EDT
Nautical Twilight 5:00 AM EDT 8:46 PM EDT
Astronomical Twilight 4:22 AM EDT 9:24 PM EDT
Moon 6:31 PM EDT (8/19) 4:20 AM EDT (8/19)
Length of Visible Light 14h 36m
Length of Day
13h 37m
Waxing Gibbous, 97% of the Moon is Illuminated
Aug 19
Waxing Gibbous
Aug 20
Full
Aug 28
Last Quarter
Sep 5
New
Sep 12
First Quarter

Hourly Weather History & Observations

Time (EDT) Temp. Heat Index Dew Point Humidity Pressure Visibility Wind Dir Wind Speed Gust Speed Precip Events Conditions
12:53 AM 55.9 °F - 55.0 °F 97% 30.13 in 10.0 mi Calm Calm - N/A   Clear
1:53 AM 55.0 °F - 53.1 °F 93% 30.13 in 10.0 mi Calm Calm - N/A   Clear
2:53 AM 55.0 °F - 53.1 °F 93% 30.12 in 10.0 mi Calm Calm - N/A   Clear
3:53 AM 54.0 °F - 52.0 °F 93% 30.12 in 10.0 mi Calm Calm - N/A   Clear
4:53 AM 54.0 °F - 52.0 °F 93% 30.12 in 10.0 mi Calm Calm - N/A   Clear
5:53 AM 55.0 °F - 53.1 °F 93% 30.12 in 10.0 mi Calm Calm - N/A   Clear
6:53 AM 59.0 °F - 55.9 °F 90% 30.12 in 10.0 mi Calm Calm - N/A   Clear
7:53 AM 64.0 °F - 60.1 °F 87% 30.12 in 10.0 mi WSW 5.8 mph - N/A   Clear
8:53 AM 66.9 °F - 61.0 °F 81% 30.11 in 10.0 mi West 4.6 mph - N/A   Clear
9:53 AM 75.0 °F - 62.1 °F 64% 30.09 in 10.0 mi NW 6.9 mph - N/A   Clear
10:53 AM 78.1 °F - 61.0 °F 56% 30.09 in 10.0 mi WNW 9.2 mph - N/A   Clear
11:53 AM 81.0 °F 81.1 °F 57.9 °F 45% 30.08 in 10.0 mi WNW 9.2 mph - N/A   Scattered Clouds
12:53 PM 77.0 °F - 63.0 °F 62% 30.07 in 10.0 mi SW 8.1 mph - N/A   Partly Cloudy
1:53 PM 77.0 °F - 64.9 °F 66% 30.06 in 10.0 mi WSW 9.2 mph - N/A   Clear
2:53 PM 75.0 °F - 64.0 °F 69% 30.05 in 10.0 mi WSW 9.2 mph - N/A   Clear
3:53 PM 75.0 °F - 64.0 °F 69% 30.04 in 10.0 mi WSW 12.7 mph - N/A   Clear
4:53 PM 75.0 °F - 62.1 °F 64% 30.04 in 10.0 mi WSW 11.5 mph - N/A   Clear
5:53 PM 75.0 °F - 62.1 °F 64% 30.04 in 10.0 mi WSW 9.2 mph - N/A   Partly Cloudy
6:53 PM 73.9 °F - 61.0 °F 64% 30.05 in 10.0 mi WSW 6.9 mph - N/A   Clear
7:53 PM 71.1 °F - 60.1 °F 68% 30.05 in 10.0 mi WSW 5.8 mph - N/A   Clear
8:53 PM 70.0 °F - 61.0 °F 73% 30.05 in 10.0 mi SW 3.5 mph - N/A   Partly Cloudy
9:53 PM 69.1 °F - 64.0 °F 84% 30.06 in 10.0 mi Calm Calm - 0.00 in   Partly Cloudy
10:53 PM 64.0 °F - 61.0 °F 90% 30.07 in 10.0 mi Calm Calm - N/A   Clear
11:53 PM 61.0 °F - 59.0 °F 93% 30.06 in 10.0 mi Calm Calm - N/A   Clear